Flag for Germany Weather past 2 weeks in Friedrichshafen, Baden-Württemberg, Germany

Now
30 °F

Clear.


Feels Like: 27 °F
Forecast: 26 / 46 °F
Wind: 3 mph from East

Location: Friedrichshafen Airport

Current Time: Mar 6, 2015 at 9:37:57 PM

Latest Report: Mar 6, 2015 at 9:20 PM


Visibility: 10 mi

Pressure: 30.57 "Hg

Humidity: 75%

Dew point: 23 °F

Location of FriedrichshafenLocation

Historic Weather in Friedrichshafen — Graph

°F

Friedrichshafen temperature yesterday

Maximum temperature yesterday: 41 °F (at 1:50 PM)
Minimum temperature yesterday: 28 °F (at 4:20 AM)
Average temperature yesterday: 34 °F

Past Weeks' High & Low Weather Summary

 TemperatureHumidityPressure
High52 °F (Feb 20, 4:50 PM)100% (Feb 23, 5:20 AM)30.66 "Hg (Feb 23, 5:20 AM)
Low21 °F (Feb 20, 6:50 AM)29% (Feb 26, 4:50 PM)29.50 "Hg (Feb 21, 12:50 PM)
Average36 °F77%30.04 "Hg
* Reported Feb 19 8:20 PM — Mar 6 8:20 PM, Friedrichshafen, Weather by CustomWeather, © 2015

Note: Actual official high and low records may vary slightly from our data, if they occured in-between our weather recording intervals... More about our weather records

Advertising

Friedrichshafen weather history for previous 24 hours

 ConditionsComfort  
Time TempWeatherWind HumidityBarometerVisibility
8:20 PM
Fri, Mar 6
32 °FClear.No wind69%30.57 "Hg10 mi
7:50 PM34 °FClear.2 mph60%30.57 "Hg10 mi
7:20 PM36 °FClear.2 mph60%30.57 "Hg10 mi
6:50 PM37 °FClear.1 mph52%30.57 "Hg10 mi
6:20 PM39 °FClear.2 mph48%30.57 "Hg10 mi
5:50 PM41 °FSunny.5 mph45%30.57 "Hg10 mi
5:20 PM43 °FSunny.6 mph46%30.54 "Hg10 mi
4:50 PM45 °FSunny.6 mph39%30.57 "Hg10 mi
4:20 PM45 °FPassing clouds.6 mph39%30.57 "HgN/A
3:50 PM46 °FSunny.3 mph37%30.57 "Hg10 mi
3:20 PM45 °FPassing clouds.6 mph42%30.57 "HgN/A
2:50 PM45 °FSunny.2 mph42%30.57 "Hg10 mi
2:20 PM45 °FSunny.5 mph46%30.57 "Hg10 mi
1:50 PM43 °FPassing clouds.6 mph49%30.60 "HgN/A
1:20 PM41 °FPassing clouds.8 mph53%30.60 "HgN/A
12:50 PM41 °FSunny.9 mph57%30.63 "Hg10 mi
12:20 PM41 °FSunny.9 mph57%30.63 "Hg10 mi
11:50 AM41 °FPassing clouds.6 mph49%30.63 "HgN/A
11:20 AM41 °FSunny.3 mph53%30.66 "Hg10 mi
10:50 AM39 °FSunny.5 mph56%30.66 "Hg10 mi
10:20 AM37 °FSunny.3 mph60%30.66 "Hg10 mi
9:50 AM36 °FSunny.5 mph65%30.66 "Hg10 mi
9:20 AM34 °FSunny.5 mph70%30.66 "Hg10 mi
8:50 AM32 °FSunny.3 mph75%30.66 "Hg10 mi
8:20 AM30 °FSunny.3 mph80%30.66 "Hg10 mi
7:50 AM27 °FSunny.3 mph86%30.63 "Hg10 mi
7:20 AM25 °FSunny.2 mph93%30.63 "Hg10 mi
6:50 AM25 °FClear.5 mph86%30.63 "Hg10 mi
6:20 AM25 °FClear.2 mph86%30.60 "Hg10 mi
5:50 AM27 °FClear.3 mph86%30.60 "Hg10 mi
5:20 AM27 °FChilly.1 mph86%30.60 "HgN/A
4:50 AM28 °FPassing clouds.3 mph86%30.60 "HgN/A
4:20 AM27 °FPartly cloudy.No wind86%30.60 "HgN/A
3:50 AM28 °FPassing clouds.2 mph86%30.60 "HgN/A
3:20 AM27 °FPassing clouds.3 mph86%30.60 "HgN/A
2:50 AM27 °FPassing clouds.3 mph86%30.60 "HgN/A
2:20 AM27 °FPassing clouds.2 mph86%30.60 "HgN/A
1:50 AM28 °FChilly.No wind80%30.60 "HgN/A
1:20 AM28 °FChilly.No wind80%30.60 "HgN/A
12:50 AM28 °FChilly.2 mph80%30.60 "HgN/A
12:20 AM30 °FChilly.2 mph80%30.60 "HgN/A
11:50 PM
Thu, Mar 5
30 °FPassing clouds.No wind75%30.60 "HgN/A
11:20 PM32 °FPassing clouds.1 mph75%30.60 "HgN/A
10:50 PM32 °FPassing clouds.1 mph80%30.60 "HgN/A
10:20 PM32 °FClear.3 mph80%30.60 "Hg10 mi
9:20 PM32 °FClear.2 mph75%30.60 "Hg10 mi
Weather by CustomWeather, © 2015

See weather overviewHow to use our weather pages